EN

Hourly Weather Kizhani

Today, 18 September, Saturday

Time Temperature Precipitation Wind Pressure Humidity
00:00 +9°C° 0.9 mm 1 mps 618 mmHg 92%
01:00 +9°C° 0.1 mm 1 mps 618 mmHg 91%
02:00 +9°C° 0.1 mm 1 mps 618 mmHg 90%
03:00 +7°C° 0 mm 0 mps 618 mmHg 89%
04:00 +7°C° 0 mm 0 mps 618 mmHg 89%
05:00 +7°C° 0 mm 0 mps 618 mmHg 89%
06:00 +7°C° 0 mm 0 mps 618 mmHg 88%
07:00 +9°C° 0 mm 0 mps 618 mmHg 84%
08:00 +10°C° 0 mm 0 mps 619 mmHg 80%
09:00 +11°C° 0 mm 0 mps 619 mmHg 76%
10:00 +12°C° 0.1 mm 0 mps 619 mmHg 74%
11:00 +13°C° 0.1 mm 1 mps 620 mmHg 71%
12:00 +14°C° 0.1 mm 1 mps 620 mmHg 68%
13:00 +14°C° 0.4 mm 1 mps 620 mmHg 69%
14:00 +14°C° 0.4 mm 1 mps 620 mmHg 70%
15:00 +14°C° 0.4 mm 1 mps 620 mmHg 71%
16:00 +13°C° 0.3 mm 1 mps 619 mmHg 77%
17:00 +12°C° 0.3 mm 1 mps 619 mmHg 84%
18:00 +11°C° 0.3 mm 1 mps 619 mmHg 90%
19:00 +11°C° 0 mm 1 mps 619 mmHg 90%
20:00 +10°C° 0 mm 1 mps 619 mmHg 90%
21:00 +10°C° 0 mm 1 mps 619 mmHg 91%
22:00 +9°C° 0 mm 1 mps 619 mmHg 90%
23:00 +9°C° 0 mm 1 mps 619 mmHg 89%

Tomorrow, 19 September, Sunday

Time Temperature Precipitation Wind Pressure Humidity
00:00 +9°C° 0 mm 1 mps 618 mmHg 89%
01:00 +9°C° 0 mm 1 mps 618 mmHg 88%
02:00 +8°C° 0 mm 1 mps 618 mmHg 87%
03:00 +7°C° 0 mm 2 mps 618 mmHg 86%
04:00 +7°C° 0 mm 2 mps 618 mmHg 84%
05:00 +7°C° 0 mm 2 mps 618 mmHg 83%
06:00 +7°C° 0 mm 2 mps 618 mmHg 81%
07:00 +10°C° 0 mm 1 mps 619 mmHg 74%
08:00 +13°C° 0 mm 1 mps 620 mmHg 67%
09:00 +15°C° 0 mm 1 mps 620 mmHg 60%
10:00 +16°C° 0 mm 1 mps 620 mmHg 55%
11:00 +18°C° 0 mm 1 mps 620 mmHg 51%
12:00 +20°C° 0 mm 1 mps 621 mmHg 46%
13:00 +20°C° 0 mm 1 mps 620 mmHg 48%
14:00 +19°C° 0 mm 2 mps 620 mmHg 50%
15:00 +19°C° 0 mm 2 mps 620 mmHg 52%
16:00 +18°C° 0 mm 1 mps 620 mmHg 62%
17:00 +15°C° 0 mm 1 mps 619 mmHg 72%
18:00 +13°C° 0 mm 1 mps 619 mmHg 82%
19:00 +13°C° 0 mm 1 mps 619 mmHg 82%
20:00 +12°C° 0 mm 1 mps 619 mmHg 82%
21:00 +12°C° 0 mm 1 mps 619 mmHg 82%
22:00 +12°C° 0 mm 1 mps 619 mmHg 82%
23:00 +11°C° 0 mm 1 mps 619 mmHg 82%

Day after tomorrow, 20 September, Monday

Time Temperature Precipitation Wind Pressure Humidity
00:00 +11°C° 0 mm 1 mps 618 mmHg 82%
01:00 +11°C° 0 mm 1 mps 618 mmHg 82%
02:00 +9°C° 0 mm 2 mps 618 mmHg 81%
03:00 +9°C° 0 mm 2 mps 618 mmHg 80%
04:00 +10°C° 0 mm 1 mps 618 mmHg 79%
05:00 +10°C° 0 mm 1 mps 618 mmHg 78%
06:00 +10°C° 0 mm 1 mps 618 mmHg 76%
07:00 +12°C° 0 mm 1 mps 619 mmHg 70%
08:00 +14°C° 0 mm 1 mps 619 mmHg 63%
09:00 +15°C° 0 mm 0 mps 620 mmHg 56%
10:00 +18°C° 0 mm 1 mps 620 mmHg 54%
11:00 +19°C° 0 mm 1 mps 620 mmHg 53%
12:00 +19°C° 0 mm 2 mps 620 mmHg 51%
13:00 +18°C° 0.6 mm 2 mps 620 mmHg 55%
14:00 +18°C° 0.6 mm 2 mps 620 mmHg 59%
15:00 +17°C° 0.6 mm 2 mps 620 mmHg 64%
16:00 +16°C° 1 mm 2 mps 620 mmHg 70%
17:00 +14°C° 1 mm 1 mps 619 mmHg 76%
18:00 +13°C° 1 mm 1 mps 619 mmHg 82%
19:00 +12°C° 0.9 mm 1 mps 619 mmHg 83%
20:00 +12°C° 0.9 mm 1 mps 619 mmHg 85%
21:00 +11°C° 0.9 mm 1 mps 619 mmHg 86%
22:00 +11°C° 0.4 mm 1 mps 619 mmHg 86%
23:00 +11°C° 0.4 mm 1 mps 619 mmHg 86%

21 September, Tuesday

Time Temperature Precipitation Wind Pressure Humidity
00:00 +11°C° 0.4 mm 1 mps 619 mmHg 86%
01:00 +10°C° 0 mm 1 mps 619 mmHg 85%
02:00 +10°C° 0 mm 1 mps 619 mmHg 85%
03:00 +10°C° 0 mm 1 mps 619 mmHg 84%
04:00 +10°C° 0 mm 1 mps 619 mmHg 84%
05:00 +10°C° 0 mm 1 mps 619 mmHg 83%
06:00 +9°C° 0 mm 1 mps 619 mmHg 83%
07:00 +11°C° 0 mm 1 mps 619 mmHg 75%
08:00 +13°C° 0 mm 1 mps 620 mmHg 66%
09:00 +16°C° 0 mm 1 mps 620 mmHg 58%
10:00 +18°C° 0 mm 1 mps 620 mmHg 53%
11:00 +19°C° 0 mm 1 mps 620 mmHg 49%
12:00 +19°C° 0 mm 2 mps 620 mmHg 44%
13:00 +19°C° 0 mm 2 mps 620 mmHg 45%
14:00 +20°C° 0 mm 2 mps 620 mmHg 46%
15:00 +20°C° 0 mm 2 mps 620 mmHg 47%
16:00 +19°C° 0.1 mm 1 mps 619 mmHg 55%
17:00 +16°C° 0.1 mm 1 mps 619 mmHg 63%
18:00 +14°C° 0.1 mm 1 mps 618 mmHg 71%
19:00 +14°C° 0 mm 1 mps 618 mmHg 71%
20:00 +13°C° 0 mm 1 mps 618 mmHg 70%
21:00 +13°C° 0 mm 2 mps 618 mmHg 69%
22:00 +12°C° 0.1 mm 2 mps 618 mmHg 72%
23:00 +12°C° 0.1 mm 2 mps 618 mmHg 74%

22 September, Wednesday

Time Temperature Precipitation Wind Pressure Humidity
00:00 +10°C° 0.1 mm 2 mps 618 mmHg 76%
01:00 +10°C° 0 mm 2 mps 618 mmHg 77%
02:00 +11°C° 0 mm 1 mps 618 mmHg 77%
03:00 +10°C° 0 mm 1 mps 618 mmHg 78%
04:00 +10°C° 0 mm 1 mps 618 mmHg 80%
05:00 +10°C° 0 mm 1 mps 618 mmHg 82%
06:00 +9°C° 0 mm 1 mps 618 mmHg 85%
07:00 +10°C° 0 mm 1 mps 618 mmHg 82%
08:00 +11°C° 0 mm 1 mps 619 mmHg 79%
09:00 +12°C° 0 mm 1 mps 619 mmHg 76%
10:00 +13°C° 0.1 mm 1 mps 619 mmHg 77%
11:00 +13°C° 0.1 mm 2 mps 619 mmHg 78%
12:00 +13°C° 0.1 mm 2 mps 618 mmHg 79%
13:00 +13°C° 0.1 mm 2 mps 618 mmHg 82%
14:00 +12°C° 0.1 mm 2 mps 618 mmHg 84%
15:00 +12°C° 0.1 mm 2 mps 618 mmHg 86%
16:00 +10°C° 0.1 mm 2 mps 617 mmHg 90%
17:00 +9°C° 0.1 mm 2 mps 617 mmHg 93%
18:00 +10°C° 0.1 mm 1 mps 617 mmHg 96%
19:00 +9°C° 0 mm 1 mps 617 mmHg 96%
20:00 +9°C° 0 mm 1 mps 617 mmHg 96%
21:00 +9°C° 0 mm 1 mps 617 mmHg 96%
22:00 +9°C° 0 mm 1 mps 616 mmHg 96%
23:00 +9°C° 0 mm 1 mps 616 mmHg 95%

23 September, Thursday

Time Temperature Precipitation Wind Pressure Humidity
00:00 +8°C° 0 mm 1 mps 616 mmHg 94%
01:00 +8°C° 0 mm 1 mps 615 mmHg 94%
02:00 +8°C° 0 mm 1 mps 615 mmHg 95%
03:00 +8°C° 0 mm 1 mps 615 mmHg 95%
04:00 +8°C° 0 mm 1 mps 615 mmHg 95%
05:00 +8°C° 0 mm 1 mps 615 mmHg 95%
06:00 +8°C° 0 mm 1 mps 615 mmHg 95%
07:00 +9°C° 0 mm 1 mps 615 mmHg 91%
08:00 +10°C° 0 mm 1 mps 615 mmHg 88%
09:00 +11°C° 0 mm 1 mps 615 mmHg 84%
10:00 +11°C° 0 mm 1 mps 615 mmHg 81%
11:00 +12°C° 0 mm 2 mps 615 mmHg 78%
12:00 +13°C° 0 mm 2 mps 615 mmHg 74%
13:00 +13°C° 0 mm 2 mps 614 mmHg 75%
14:00 +13°C° 0 mm 2 mps 614 mmHg 76%
15:00 +13°C° 0 mm 2 mps 614 mmHg 77%
16:00 +10°C° 0 mm 2 mps 613 mmHg 82%
17:00 +10°C° 0 mm 1 mps 613 mmHg 86%
18:00 +9°C° 0 mm 1 mps 613 mmHg 91%
19:00 +9°C° 0 mm 1 mps 612 mmHg 92%
20:00 +9°C° 0 mm 1 mps 612 mmHg 92%
21:00 +8°C° 0 mm 1 mps 612 mmHg 93%
22:00 +8°C° 0 mm 1 mps 611 mmHg 92%
23:00 +8°C° 0 mm 1 mps 610 mmHg 92%
Show more

We Need Your Consent

Meteoprog and our Service Providers may store and access personal data such as cookies, device identifiers or other similar technologies on your device and process such data to personalise content and ads, as well as provide social media features and to analyse the traffic.

  • Store and/or access information on your device

    Cookies, device identifiers or other information can be stored or accessed on your device for the purposes indicated above.

  • Personalised ads and content, ad and content measurement, audience insights, and products development

    Ads and content can be personalised based on a profile. More data can be added to better personalise ads and content. Ad and content performance can be measured. Insights about the audience who saw the ads and content can be derived. Such data can be used to develop or improve user’s experience, systems and software.

By clicking ‘I Agree’ you will allow the use of indicated cookies, device identifiers, web beacons or other similar technologies. Your settings can be changed in the browser on your device.

For certain purposes, legitimate interests may be relied on, rather than consent. You can read more about this in our Privacy and Cookie Policy.